This is the latest recevied weather packets stored in our database for station/object Oberstadn. If no packets are shown the sender has not sent any weather packets the latest 10 day(s).
| Time | Temp. | Humidity | Pressure | Rain* | Wind** | Luminosity | Snow |
|---|---|---|---|---|---|---|---|
| 1777476730 | 17.78° C | 36% | 1019.8 hPa | 0 mm | - | - | - |
| 1777474931 | 18.33° C | 37% | 1019.7 hPa | 0 mm | - | - | - |
| 1777473135 | 18.33° C | 37% | 1019.7 hPa | 0 mm | - | - | - |
| 1777471331 | 18.33° C | 36% | 1019.8 hPa | 0 mm | - | - | - |
| 1777469531 | 18.33° C | 37% | 1019.8 hPa | 0 mm | - | - | - |
| 1777467730 | 18.33° C | 38% | 1019.9 hPa | 0 mm | - | - | - |
| 1777465932 | 17.78° C | 36% | 1020 hPa | 0 mm | - | - | - |
| 1777464131 | 17.78° C | 40% | 1020 hPa | 0 mm | - | - | - |
| 1777462330 | 17.22° C | 39% | 1020 hPa | 0 mm | - | - | - |
| 1777460530 | 16.67° C | 44% | 1019.9 hPa | 0 mm | - | - | - |
| 1777458730 | 16.67° C | 47% | 1020.3 hPa | 0 mm | - | - | - |
| 1777456931 | 16.11° C | 48% | 1020.3 hPa | 0 mm | - | - | - |
| 1777455131 | 15° C | 49% | 1020.2 hPa | 0 mm | - | - | - |
| 1777453332 | 14.44° C | 51% | 1020.1 hPa | 0 mm | - | - | - |
| 1777451531 | 13.33° C | 53% | 1020.4 hPa | 0 mm | - | - | - |
| 1777449731 | 12.22° C | 54% | 1020.4 hPa | 0 mm | - | - | - |
| 1777447931 | 10.56° C | 59% | 1020.4 hPa | 0 mm | - | - | - |
| 1777446131 | 9.44° C | 60% | 1020.4 hPa | 0 mm | - | - | - |
| 1777444331 | 9.44° C | 60% | 1020.2 hPa | 0 mm | - | - | - |
| 1777442531 | 8.89° C | 60% | 1019.8 hPa | 0 mm | - | - | - |
| 1777440731 | 8.89° C | 60% | 1019.5 hPa | 0 mm | - | - | - |
| 1777438931 | 8.89° C | 59% | 1019.1 hPa | 0 mm | - | - | - |
| 1777437132 | 9.44° C | 58% | 1018.8 hPa | 0 mm | - | - | - |
| 1777435331 | 9.44° C | 58% | 1018.7 hPa | 0 mm | - | - | - |
| 1777433531 | 10° C | 57% | 1018.5 hPa | 0 mm | - | - | - |
* Rain since midnight (hover to see other rain measurements)
** Current wind speed in m/s (hover to see current wind gust speed)